Location: Koussan�
(15.2012°N, 12.5548°W)
Time: 17:52:10
(UTC+00:00)

Cosmos 1110 Rocket - Pass Details

Date: 20 October 2020
Orbit: 753 x 780 km, 74.0° (Epoch: 30 November)

Event Time Altitude Azimuth Distance (km) Brightness Sun altitude
Rises 18:55:18 0° 196° (SSW) 3,249 7.6 -7.6°
Reaches altitude 10° 18:57:41 10° 198° (SSW) 2,320 6.9 -8.2°
Maximum altitude 19:02:57 76° 283° (WNW) 798 4.3 -9.5°
Drops below altitude 10° 19:08:11 10° 9° (N) 2,308 6.3 -10.7°
Sets 19:10:34 0° 11° (N) 3,230 7.0 -11.3°
